Weather History for Dillon, MT

Change the Weather History Date:

Saturday, February 2, 2013

  Actual Average Record
Temperature  
Mean Temperature 31 °F 24 °F  
Max Temperature 42 °F 34 °F 56 °F (1934)
Min Temperature 20 °F 14 °F -30 °F (1989)
Degree Days  
Heating Degree Days 34    
Month to date heating degree days 64  
Since 1 July heating degree days 4464  
Cooling Degree Days 0    
Month to date cooling degree days 0  
Year to date cooling degree days 0  
Moisture  
Dew Point 18 °F    
Average Humidity 60    
Maximum Humidity 77    
Minimum Humidity 43    
Precipitation  
Precipitation 0.00 in 0.00 in 0.18 in (1971)
Month to date precipitation 0.00 0.01  
Year to date precipitation 0.27 0.29  
Snow  
Snow 0.00 in - - ()
Snow Depth T in    
Sea Level Pressure  
Sea Level Pressure 30.43 in    
Wind  
Wind Speed 10 mph (SW)    
Max Wind Speed 20 mph    
Max Gust Speed 23 mph    
T = Trace of Precipitation, MM = Missing Value Source: NWS Daily Summary

Daily Weather History Graph

Daily Weather History Graph

Search for Another Location

Airport:

Trip Planner

Search our weather history database for the weather conditions in past years. The results will help you decide how hot, cold, wet, or windy it might be!

Date:

Astronomy

Feb. 02, 2013 Rise Set
Actual Time 7:49 AM MST 5:39 PM MST
Civil Twilight 7:17 AM MST 6:10 PM MST
Nautical Twilight 6:42 AM MST 6:46 PM MST
Astronomical Twilight 6:08 AM MST 7:20 PM MST
Moon 12:10 AM MST (2/2) 10:40 AM MST (2/2)
Length of Visible Light 10h 53m
Length of Day
9h 50m
Waning Gibbous, 59% of the Moon is Illuminated
Feb 2
Waning Gibbous
Feb 3
Last Quarter
Feb 10
New
Feb 17
First Quarter
Feb 25
Full

Hourly Weather History & Observations

Time (MST) Temp. Windchill Dew Point Humidity Pressure Visibility Wind Dir Wind Speed Gust Speed Precip Events Conditions
12:53 AM 25.0 °F 16.3 °F 17.1 °F 72% 30.39 in - SSW 8.1 mph - N/A   Clear
1:53 AM 25.0 °F 16.3 °F 17.1 °F 72% 30.39 in - SSW 8.1 mph - N/A   Clear
2:53 AM 25.0 °F 14.8 °F 17.1 °F 72% 30.41 in - SW 10.4 mph - N/A   Clear
3:53 AM 24.1 °F 12.0 °F 16.0 °F 71% 30.43 in - SW 13.8 mph - N/A   Clear
5:53 AM 21.0 °F 14.6 °F 15.1 °F 78% 30.49 in - SW 4.6 mph - N/A   Clear
6:53 AM 21.9 °F 11.7 °F 15.1 °F 75% 30.49 in - SW 9.2 mph - N/A   Clear
7:53 AM 23.0 °F 15.8 °F 15.1 °F 72% 30.52 in - WSW 5.8 mph - N/A   Clear
8:53 AM 24.1 °F 13.7 °F 16.0 °F 71% 30.53 in - SW 10.4 mph - N/A   Clear
9:53 AM 28.0 °F 17.5 °F 18.0 °F 66% 30.50 in - SW 12.7 mph - N/A   Clear
10:53 AM 33.1 °F 24.4 °F 18.0 °F 54% 30.48 in - SW 11.5 mph - N/A   Clear
11:53 AM 36.0 °F 27.5 °F 19.0 °F 50% 30.46 in - SW 12.7 mph - N/A   Clear
12:53 PM 39.0 °F 30.6 °F 19.0 °F 45% 30.43 in - SW 15.0 mph - N/A   Clear
1:53 PM 39.9 °F 33.4 °F 19.9 °F 45% 30.40 in - SW 10.4 mph - N/A   Clear
2:53 PM 42.1 °F 38.4 °F 21.0 °F 43% 30.38 in - West 5.8 mph - N/A   Clear
3:53 PM 42.1 °F 36.1 °F 21.0 °F 43% 30.37 in - SW 10.4 mph - N/A   Clear
4:53 PM 37.9 °F 30.9 °F 21.9 °F 53% 30.40 in - SSW 10.4 mph - N/A   Clear
5:53 PM 32.0 °F 25.6 °F 21.9 °F 66% 30.43 in - SSW 6.9 mph - N/A   Clear
6:53 PM 30.0 °F 21.7 °F 21.0 °F 69% 30.44 in - SSW 9.2 mph - N/A   Clear
7:53 PM 28.0 °F 18.6 °F 21.0 °F 75% 30.44 in - SSW 10.4 mph - N/A   Clear
8:53 PM 27.0 °F 16.7 °F 19.0 °F 72% 30.42 in - SSW 11.5 mph - N/A   Clear
9:53 PM 27.0 °F 15.6 °F 19.0 °F 72% 30.39 in - SW 13.8 mph - N/A   Clear
10:53 PM 26.1 °F 15.0 °F 19.0 °F 75% 30.37 in - South 12.7 mph - N/A   Clear
11:53 PM 24.1 °F 13.7 °F 18.0 °F 77% 30.35 in - South 10.4 mph - N/A   Clear